Theta_e
334 333 337 337 339 340 341 342 342 340 339 339 337 337 335 336 336 335 336 339 340 341 341 343 343 344 344 344 344 344 344 344 345 345 345 345 345 343 342 341 341 341 340
336 339 339 337 338 342 342 341 340 341 339 338 341 343 343 337 335 337 340 341 342 343 344 344 345 344 344 344 345 345 346 347 347 347 346 346 347 346 345 344 341 341 341
337 340 339 339 340 339 340 340 340 341 340 338 339 342 344 345 340 340 341 341 342 343 343 343 343 343 343 344 343 345 345 344 344 344 344 345 345 347 346 345 345 342 341
339 338 339 340 341 341 342 341 340 342 342 341 339 341 344 344 343 345 348 348 347 348 349 349 346 343 342 342 342 342 342 344 343 344 342 344 344 342 344 347 346 345 344
339 339 338 342 342 343 345 343 343 343 343 344 344 343 344 344 342 345 346 345 345 347 349 349 347 345 344 344 344 343 342 345 347 345 345 345 346 346 341 345 347 347 345
341 341 338 341 344 343 345 345 343 344 344 344 345 344 344 344 343 342 343 343 347 348 347 347 347 346 346 347 347 346 345 347 347 349 349 348 347 346 346 339 346 347 345
342 341 339 339 343 345 343 345 344 344 344 345 345 344 344 344 344 342 343 346 346 346 347 347 348 348 349 348 349 348 346 346 347 348 349 348 348 346 343 338 340 344 343
342 342 341 342 343 343 342 345 342 342 343 343 343 343 344 344 344 345 345 346 347 346 346 346 346 347 346 346 348 349 345 345 340 343 348 348 345 343 339 333 335 341 341
340 344 341 341 344 343 341 345 344 342 344 346 345 345 345 347 344 344 344 345 344 344 345 344 345 346 346 345 346 348 347 341 337 337 345 348 346 347 339 328 334 337 331
340 343 341 341 341 342 342 343 345 343 341 344 345 345 345 344 349 348 344 343 343 344 345 344 344 345 344 345 346 346 344 339 337 342 346 345 347 345 337 327 325 326 326
342 343 344 344 343 343 341 342 345 345 344 344 343 344 344 344 344 345 347 347 343 343 343 343 342 341 341 343 342 341 341 338 338 344 346 345 345 348 339 339 337 325 327
342 343 343 343 341 343 340 341 345 344 344 345 344 343 344 343 342 343 344 344 341 341 341 339 341 341 342 341 343 343 342 339 340 344 346 345 344 343 342 339 342 341 339
344 344 343 342 344 343 342 339 343 344 343 342 344 344 344 344 341 341 342 344 344 344 343 343 343 344 344 343 343 340 339 341 343 344 344 345 343 343 344 343 343 342 342
345 346 345 344 343 343 344 342 343 343 342 342 341 342 342 344 344 344 344 345 348 348 343 343 344 345 344 345 342 342 341 337 344 344 346 346 345 345 344 345 345 344 343
345 345 345 345 345 346 346 344 341 341 340 343 343 343 342 341 342 344 344 344 345 345 345 346 344 344 345 344 342 343 341 339 344 346 346 347 345 344 341 340 343 345 345
344 345 346 345 345 346 345 345 343 340 342 343 342 341 343 343 343 343 343 343 344 347 346 347 346 341 344 344 344 344 343 345 344 343 342 341 338 337 334 335 339 342 340
345 345 345 345 345 345 345 344 344 343 344 343 343 342 343 343 341 342 344 344 344 343 347 345 344 342 339 340 343 343 344 345 346 341 339 338 337 338 340 345 349 346 348
345 344 345 344 343 343 343 345 344 344 341 342 342 342 345 343 344 343 343 342 342 343 346 349 347 347 343 342 342 343 344 346 341 341 338 338 338 344 348 350 349 347 346
343 344 342 342 343 344 345 344 342 342 342 343 343 343 342 342 342 343 342 344 343 346 344 344 347 344 343 340 339 339 340 341 342 340 340 343 344 346 345 345 346 345 345
341 341 341 341 343 343 341 342 343 344 343 344 344 343 343 343 343 342 343 343 344 342 343 343 345 348 342 340 339 339 342 340 340 342 345 345 344 341 341 340 340 340 340
340 338 340 342 342 342 341 341 342 343 344 344 344 344 344 344 344 344 343 343 342 340 340 340 340 342 341 344 339 343 341 340 342 340 345 345 340 337 336 338 340 340 337
339 341 343 342 343 341 342 342 343 341 343 343 342 343 343 344 344 341 341 342 339 340 341 340 340 341 341 340 340 340 340 343 345 341 344 341 338 334 336 336 336 334 331
341 342 342 343 343 343 340 343 343 341 340 341 341 343 344 342 342 341 341 340 340 339 340 341 341 340 340 339 339 338 338 341 344 341 341 343 336 337 334 335 334 333 332
342 342 342 343 341 339 339 342 342 341 336 334 340 343 341 339 339 337 336 335 338 340 340 340 340 339 339 337 335 335 336 337 338 338 339 338 335 332 336 330 331 331 331
342 342 341 341 341 341 341 341 339 338 338 338 337 337 336 339 338 338 336 338 339 337 336 336 335 334 333 332 332 333 333 336 339 338 334 332 329 326 327 330 328 328 314
342 342 342 341 341 339 338 336 336 336 336 339 339 340 340 340 340 339 338 336 334 334 334 334 332 331 329 328 328 329 329 332 334 330 329 326 319 313 320 319 321 313 306
Wind_Speed
5 6 6 7 8 6 4 3 3 5 8 12 12 15 14 13 13 12 13 14 14 14 13 12 11 10 10 10 10 10 10 11 11 11 12 12 11 11 11 10 10 10 10
9 8 7 7 5 6 3 4 4 5 6 8 13 14 15 16 14 13 14 14 13 12 10 9 8 8 9 9 9 10 10 10 10 11 11 11 11 11 10 10 10 10 11
7 8 9 8 6 4 3 3 2 4 8 9 8 10 11 13 13 13 13 13 11 10 9 8 7 7 7 7 8 8 8 10 11 11 10 11 11 11 11 10 10 10 11
7 7 8 8 5 4 3 2 3 6 8 8 7 8 8 10 11 13 12 10 8 7 7 7 7 7 7 7 8 9 9 11 11 11 10 11 12 13 12 10 9 9 10
7 6 9 6 6 5 7 5 6 8 8 9 9 7 6 6 8 9 7 4 2 2 3 4 4 5 5 7 8 8 8 10 12 13 12 12 13 14 14 11 9 9 9
7 6 10 5 7 6 6 6 7 4 6 5 3 2 3 4 6 6 4 1 1 1 2 3 4 5 6 6 7 7 7 9 10 12 13 14 13 14 14 12 8 8 9
7 7 9 6 6 6 4 5 4 5 3 3 4 3 2 3 3 6 5 3 2 2 3 5 6 7 7 7 7 7 7 7 9 12 15 15 14 16 15 13 8 8 9
5 7 7 7 6 4 1 2 2 0 1 2 3 3 1 2 3 5 5 5 5 5 5 6 9 8 8 9 9 8 8 10 10 14 14 13 14 17 16 13 8 7 9
6 5 6 7 6 5 4 2 2 1 1 1 3 2 1 1 2 5 6 7 7 7 7 7 8 10 11 11 8 9 10 12 15 14 9 10 12 16 17 13 9 8 8
8 8 6 6 7 6 5 6 4 4 3 3 1 0 1 0 1 2 5 4 4 4 5 6 9 9 10 9 9 10 12 12 12 11 12 11 12 14 16 13 10 8 8
9 8 7 7 7 7 8 8 8 5 4 4 5 4 4 3 3 4 6 6 8 8 8 8 7 11 11 10 11 10 12 16 11 13 13 12 12 10 12 13 14 10 9
12 11 11 9 9 9 9 10 10 7 5 4 3 3 3 5 6 5 5 6 5 6 7 6 6 9 6 7 7 10 13 11 6 11 12 13 12 11 10 9 11 11 11
12 13 12 13 10 9 9 10 12 11 9 7 6 5 4 4 4 4 4 5 5 6 4 5 3 5 5 7 8 10 12 13 12 9 9 10 12 10 10 9 10 9 10
15 13 15 12 12 11 11 11 12 12 12 12 11 9 7 6 5 4 4 4 6 5 6 5 5 6 8 9 7 10 14 16 11 6 7 8 10 11 14 14 12 12 11
14 14 16 16 14 13 13 12 12 15 12 11 11 11 11 11 11 10 9 10 8 9 9 6 6 8 8 8 9 12 14 14 9 8 9 10 14 15 16 15 14 14 13
11 13 13 15 16 17 16 15 13 14 14 12 12 11 11 12 13 13 12 12 11 10 11 10 9 12 12 10 11 12 14 11 9 10 12 15 17 17 15 14 13 13 12
10 10 12 13 15 17 18 17 16 15 16 15 14 12 12 12 14 15 15 15 14 13 12 12 14 14 14 13 12 13 14 13 11 13 14 14 15 14 13 11 11 12 12
11 10 10 11 13 15 17 17 17 17 17 17 16 17 16 16 15 14 14 16 15 14 13 13 11 9 9 10 10 11 11 8 11 12 12 13 13 12 11 9 9 10 11
14 13 11 12 12 14 15 16 14 15 17 18 18 18 17 17 17 15 15 14 12 13 14 12 9 11 13 10 8 8 9 10 7 7 8 7 8 10 11 12 12 12 13
17 16 13 12 13 14 14 16 16 16 17 18 18 18 16 16 16 14 13 12 13 14 13 12 12 11 12 10 10 9 9 8 7 4 6 5 3 5 8 9 11 12 14
18 16 14 13 14 13 13 14 15 15 16 18 19 19 19 18 16 15 12 11 13 13 13 13 13 11 11 9 12 11 11 9 8 3 2 4 4 3 4 6 8 10 12
22 17 14 16 15 17 17 17 17 15 15 15 15 14 15 13 13 13 13 12 11 13 13 12 11 10 11 11 11 11 10 7 4 5 3 5 5 3 5 6 7 8 9
18 18 17 18 21 19 14 13 14 15 15 14 15 14 11 9 9 10 11 11 12 14 12 11 10 10 11 12 11 8 8 6 3 3 1 2 3 2 6 7 8 9 10
15 15 14 14 13 14 17 15 16 15 14 11 9 11 11 12 15 13 14 15 14 12 10 10 10 10 8 7 7 6 5 7 6 6 4 1 3 0 7 10 12 13 14
16 14 14 16 15 15 14 12 13 15 17 19 19 16 17 15 14 12 13 13 12 10 9 9 9 9 9 8 7 7 5 5 6 9 10 8 7 5 4 11 13 12 17
18 19 18 12 11 10 9 10 10 10 10 10 10 14 15 13 12 14 12 11 10 11 13 13 12 11 10 11 10 10 9 6 6 7 10 10 9 6 2 10 13 17 14
Wind_Direction
109 114 138 155 146 137 132 112 82 75 77 69 85 86 83 84 86 91 91 90 87 83 81 78 76 76 72 69 63 55 47 42 37 32 26 20 12 8 3 2 357 354 339
116 108 121 147 142 134 144 133 113 81 80 94 100 88 86 83 88 92 95 94 93 89 83 78 72 65 61 59 54 51 45 35 29 23 16 9 3 360 359 0 356 2 5
120 115 115 110 132 144 155 161 128 93 102 110 106 92 89 86 91 94 95 94 90 89 85 78 75 71 65 56 53 49 40 30 21 15 12 8 0 349 345 347 354 352 360
128 123 129 124 128 120 115 112 122 123 121 115 114 107 97 98 107 113 112 107 97 77 62 59 59 54 53 49 41 36 35 29 25 20 20 17 12 3 349 338 342 352 353
132 127 145 121 120 113 106 108 130 125 118 103 107 106 106 117 135 140 142 128 77 60 37 48 53 41 30 29 26 21 20 17 17 17 12 5 1 359 360 346 334 341 347
144 127 156 134 128 128 132 99 135 127 122 115 121 129 130 136 147 170 199 253 128 107 64 26 358 349 355 354 357 356 358 5 5 6 358 354 353 352 353 351 334 332 342
156 160 163 172 150 116 130 114 126 127 76 119 133 149 131 151 189 180 178 176 206 291 313 320 321 317 317 324 329 325 337 330 341 347 347 345 351 353 350 353 338 334 342
166 166 173 167 174 168 139 109 104 227 346 92 142 163 192 210 223 216 223 246 259 270 292 304 298 299 308 314 316 314 314 323 335 337 343 353 2 1 355 354 349 343 348
181 171 183 189 192 194 197 225 234 283 277 102 121 175 194 216 226 247 256 266 272 281 294 290 313 305 316 319 293 294 297 316 305 313 341 345 355 359 360 359 0 354 356
203 193 194 200 218 229 226 227 232 241 262 241 215 112 88 275 270 285 302 290 276 281 316 312 311 312 310 324 329 309 305 303 309 308 345 338 343 358 5 14 14 10 13
208 210 219 212 223 227 229 228 225 226 243 255 255 258 276 288 291 286 294 307 314 304 305 305 312 322 315 322 318 328 330 316 285 320 341 338 337 347 9 23 29 24 24
216 227 227 225 232 227 228 223 225 226 236 256 262 256 263 270 276 275 290 305 321 335 331 316 287 327 330 359 25 1 0 8 323 319 331 346 344 349 351 359 12 19 13
235 235 226 224 228 229 232 231 232 236 242 251 258 262 274 292 280 292 297 310 335 352 27 37 358 7 360 355 355 360 355 336 330 326 329 343 354 4 344 334 336 347 354
254 248 239 238 230 236 244 247 241 246 249 252 254 253 260 265 269 273 289 310 313 310 312 330 340 335 336 332 340 348 355 356 334 318 331 338 348 354 343 343 322 327 332
252 249 240 232 243 245 252 253 252 247 251 254 254 254 258 261 260 263 270 279 285 293 293 297 305 301 308 308 310 326 338 344 333 320 335 336 330 333 330 324 315 310 312
260 239 245 237 241 243 246 250 253 245 244 251 253 256 259 261 260 262 265 269 272 275 285 295 298 293 295 304 298 311 322 329 335 332 336 333 329 333 342 341 336 333 323
248 252 240 244 247 242 243 251 255 248 247 250 253 253 253 258 261 263 264 268 272 274 276 287 298 301 299 292 291 300 309 319 324 329 330 334 335 341 344 349 353 358 357
237 245 254 265 249 246 244 250 256 253 250 252 254 257 262 260 263 259 264 268 268 269 277 288 292 310 325 318 307 302 305 316 322 328 330 332 331 332 334 329 341 354 354
236 245 254 263 265 251 244 253 259 245 250 258 260 263 265 260 257 265 269 270 269 268 281 288 289 305 320 321 318 315 315 325 340 335 344 345 332 332 333 336 336 335 337
236 236 247 257 259 263 257 255 258 255 258 260 262 263 262 265 266 263 270 271 271 276 280 283 291 295 313 316 325 329 333 339 336 341 0 16 7 347 342 348 351 355 355
238 235 237 243 251 253 256 263 263 262 263 263 265 265 260 263 261 257 259 264 278 285 283 285 289 295 301 306 318 318 325 332 325 341 9 62 65 12 351 353 358 358 355
235 234 249 243 247 242 257 256 256 260 263 264 264 262 263 260 261 254 262 263 279 283 277 278 282 278 283 300 313 319 318 324 307 329 109 68 65 16 352 2 10 356 359
221 246 262 252 245 238 256 259 253 256 263 264 258 255 255 256 255 270 280 287 294 287 281 276 280 287 295 304 312 324 325 325 302 336 32 143 62 52 321 324 319 320 322
244 253 258 239 249 238 258 256 255 252 243 240 245 234 244 261 262 265 277 277 288 285 285 281 285 287 293 302 312 318 318 312 304 297 316 267 281 300 294 294 296 306 311
251 250 234 235 239 240 239 240 244 251 260 259 248 254 269 259 250 253 267 271 270 274 284 288 292 292 292 291 297 312 304 303 280 285 294 302 299 308 258 281 298 305 319
251 240 232 218 219 225 232 236 242 251 251 258 252 249 245 241 240 247 248 248 262 276 282 281 280 281 289 296 297 297 292 282 275 284 290 295 297 317 262 265 288 304 312